User: anonymous   Login
Location: Unspecified
(0.0000°N, 0.0000°E)
Time: 00:51:17
(UTC+00:00)
Language:

STARLINK-32359 - Orbit

View from above orbital plane
View from above orbital plane
View from above satellite
View from above satellite

Ground track
Ground track

The orbit is defined by the following mean orbital elements,

1 61957U          26145.31085289 +.00000000 +00000-0 +26070-1 0 00001
2 61957  53.1583 143.9675 0017757 265.0929  94.8051 15.45573474    02
Epoch (UTC): 25 May 2026 07:27:37
Eccentricity: 0.0017757
inclination: 53.1583°
perigee height: 418 km
apogee height: 442 km
right ascension of ascending node: 143.9675°
argument of perigee: 265.0929°
revolutions per day: 15.45573474
mean anomaly at epoch: 94.8051°

The dashed part of the orbit path shows where the satellite is in the earth's shadow,  

DLR